Location: Cruquius
(52.3348°N, 4.6319°E)
Time: 05:52:07
(UTC+00:00)

NOSS 3-3 (C) - Pass Details

Date: 03 October 2021
Orbit: 801 x 1411 km, 63.4° (Epoch: 05 October)

Event Time Altitude Azimuth Distance (km) Brightness Sun altitude
Rises 17:42:17 0° 313° (NW) 3,889 7.9 -5.2°
Reaches altitude 10° 17:44:48 10° 313° (NW) 3,012 7.3 -5.6°
Maximum altitude 17:52:08 85° 227° (SW) 1,261 4.7 -6.7°
Drops below altitude 10° 18:00:30 10° 140° (SE) 3,406 6.4 -8.0°
Sets 18:03:30 0° 140° (SE) 4,422 7.0 -8.4°
